| time (UTC) | temp F | wind direction | speed MPH | gust MPH | rain 1hr in | rain 24hr in | rain mn in | humidity % | barometer mb |
| 20260504173815 | 71 | 211 | 1.0 | 9.0 | 0.00 | 0.00 | 0.00 | 50 | 1010.2 |
| 20260504173307 | 70 | 209 | 1.0 | 10.0 | 0.00 | 0.00 | 0.00 | 48 | 1010.2 |
| 20260504172800 | 70 | 190 | 1.0 | 10.0 | 0.00 | 0.00 | 0.00 | 47 | 1010.3 |
| 20260504172255 | 70 | 248 | 1.0 | 8.0 | 0.00 | 0.00 | 0.00 | 51 | 1010.3 |
| 20260504171748 | 69 | 248 | 2.0 | 9.0 | 0.00 | 0.00 | 0.00 | 46 | 1010.5 |
| 20260504171243 | 69 | 253 | 2.0 | 9.0 | 0.00 | 0.00 | 0.00 | 46 | 1010.6 |
| 20260504171000 | 69 | 167 | 2.0 | 9.0 | 0.00 | 0.00 | 0.00 | 48 | 1010.7 |
| 20260504170231 | 69 | 244 | 3.0 | 9.0 | 0.00 | 0.00 | 0.00 | 47 | 1010.8 |
| 20260504160118 | 67 | 245 | 1.0 | 9.0 | 0.00 | 0.00 | 0.00 | 49 | 1011.6 |
| 20260504151019 | 65 | 244 | 1.0 | 5.0 | 0.00 | 0.00 | 0.00 | 51 | 1012.1 |
| 20260504150744 | 65 | 244 | 1.0 | 8.0 | 0.00 | 0.00 | 0.00 | 50 | 1012.2 |
| 20260504150240 | 65 | 247 | 1.0 | 8.0 | 0.00 | 0.00 | 0.00 | 52 | 1012.2 |
| 20260504140907 | 61 | 261 | 0.0 | 6.0 | 0.00 | 0.00 | 0.00 | 56 | 1012.7 |
| 20260504140400 | 60 | 263 | 0.0 | 6.0 | 0.00 | 0.00 | 0.00 | 55 | 1012.8 |
| 20260504130758 | 56 | 250 | 0.0 | 0.0 | 0.00 | 0.00 | 0.00 | 60 | 1013.0 |
| 20260504130254 | 56 | 250 | 0.0 | 0.0 | 0.00 | 0.00 | 0.00 | 60 | 1013.0 |
| 20260504120243 | 50 | 250 | 0.0 | 0.0 | 0.00 | 0.00 | 0.00 | 66 | 1013.2 |
| 20260504110232 | 45 | 250 | 0.0 | 0.0 | 0.00 | 0.00 | 0.00 | 72 | 1013.0 |
| 20260504100220 | 43 | 250 | 0.0 | 0.0 | 0.00 | 0.00 | 0.00 | 76 | 1013.2 |
| 20260504081558 | 46 | 250 | 0.0 | 0.0 | 0.00 | 0.00 | 0.00 | 68 | 1013.5 |
| 20260504081100 | 46 | 250 | 0.0 | 0.0 | 0.00 | 0.00 | 0.00 | 67 | 1013.5 |
| 20260504080830 | 47 | 250 | 0.0 | 0.0 | 0.00 | 0.00 | 0.00 | 67 | 1013.4 |
| 20260504050658 | 50 | 250 | 0.0 | 0.0 | 0.00 | 0.00 | 0.00 | 60 | 1013.5 |
| 20260504045920 | 50 | 250 | 0.0 | 0.0 | 0.00 | 0.00 | 0.00 | 59 | 1013.5 |
| 20260504045408 | 50 | 250 | 0.0 | 0.0 | 0.00 | 0.00 | 0.00 | 59 | 1013.6 |
| 20260504044907 | 51 | 250 | 0.0 | 0.0 | 0.00 | 0.00 | 0.00 | 59 | 1013.5 |
| 20260504044638 | 51 | 250 | 0.0 | 0.0 | 0.00 | 0.00 | 0.00 | 57 | 1013.6 |
| 20260504043908 | 52 | 250 | 0.0 | 0.0 | 0.00 | 0.00 | 0.00 | 56 | 1013.6 |
| 20260504043408 | 52 | 250 | 0.0 | 0.0 | 0.00 | 0.00 | 0.00 | 55 | 1013.5 |
| 20260504042906 | 52 | 250 | 0.0 | 0.0 | 0.00 | 0.00 | 0.00 | 56 | 1013.5 |
| 20260504042639 | 52 | 250 | 0.0 | 0.0 | 0.00 | 0.00 | 0.00 | 54 | 1013.5 |
| 20260504041904 | 52 | 250 | 0.0 | 0.0 | 0.00 | 0.00 | 0.00 | 55 | 1013.4 |
| 20260504041404 | 52 | 250 | 0.0 | 0.0 | 0.00 | 0.00 | 0.00 | 56 | 1013.5 |
| 20260504040903 | 52 | 250 | 0.0 | 0.0 | 0.00 | 0.00 | 0.00 | 55 | 1013.4 |
| 20260504040405 | 52 | 250 | 0.0 | 1.0 | 0.00 | 0.00 | 0.00 | 55 | 1013.4 |
| 20260504035903 | 52 | 250 | 0.0 | 1.0 | 0.00 | 0.00 | 0.00 | 56 | 1013.4 |
| 20260504035354 | 52 | 250 | 0.0 | 0.0 | 0.00 | 0.00 | 0.00 | 56 | 1013.3 |
| 20260504034851 | 52 | 250 | 0.0 | 1.0 | 0.00 | 0.00 | 0.00 | 57 | 1013.3 |
| 20260504034343 | 52 | 250 | 0.0 | 1.0 | 0.00 | 0.00 | 0.00 | 56 | 1013.3 |
| 20260504033838 | 52 | 251 | 0.0 | 0.0 | 0.00 | 0.00 | 0.00 | 56 | 1013.2 |
| 20260504033327 | 52 | 251 | 0.0 | 0.0 | 0.00 | 0.00 | 0.00 | 56 | 1013.2 |
| 20260504032826 | 53 | 251 | 0.0 | 0.0 | 0.00 | 0.00 | 0.00 | 54 | 1013.2 |
| 20260504032320 | 53 | 251 | 0.0 | 2.0 | 0.00 | 0.00 | 0.00 | 53 | 1013.1 |
| 20260504031815 | 53 | 251 | 0.0 | 2.0 | 0.00 | 0.00 | 0.00 | 52 | 1013.1 |
| 20260504031304 | 53 | 251 | 0.0 | 2.0 | 0.00 | 0.00 | 0.00 | 53 | 1013.1 |
| 20260504030758 | 52 | 251 | 0.0 | 0.0 | 0.00 | 0.00 | 0.00 | 54 | 1013.0 |
| 20260504030255 | 51 | 251 | 0.0 | 0.0 | 0.00 | 0.00 | 0.00 | 56 | 1013.0 |
| 20260504025747 | 51 | 251 | 0.0 | 0.0 | 0.00 | 0.00 | 0.00 | 59 | 1013.0 |
| 20260504025241 | 52 | 251 | 0.0 | 0.0 | 0.00 | 0.00 | 0.00 | 58 | 1012.9 |
| 20260504025000 | 53 | 251 | 0.0 | 0.0 | 0.00 | 0.00 | 0.00 | 57 | 1013.0 |
| 20260504024456 | 53 | 251 | 0.0 | 0.0 | 0.00 | 0.00 | 0.00 | 55 | 1013.0 |
| 20260504023949 | 54 | 251 | 0.0 | 0.0 | 0.00 | 0.00 | 0.00 | 53 | 1013.0 |
| 20260504023211 | 54 | 251 | 0.0 | 4.0 | 0.00 | 0.00 | 0.00 | 51 | 1013.1 |
| 20260504022705 | 53 | 251 | 0.0 | 4.0 | 0.00 | 0.00 | 0.00 | 52 | 1013.1 |
| 20260504022159 | 53 | 251 | 0.0 | 0.0 | 0.00 | 0.00 | 0.00 | 54 | 1013.1 |
| 20260504021916 | 52 | 251 | 0.0 | 0.0 | 0.00 | 0.00 | 0.00 | 57 | 1013.1 |
| 20260504021146 | 52 | 251 | 0.0 | 0.0 | 0.00 | 0.00 | 0.00 | 58 | 1013.1 |
| 20260504020633 | 52 | 251 | 0.0 | 0.0 | 0.00 | 0.00 | 0.00 | 56 | 1013.1 |
| 20260504020135 | 53 | 251 | 0.0 | 0.0 | 0.00 | 0.00 | 0.00 | 56 | 1013.1 |
| 20260504015629 | 53 | 251 | 0.0 | 0.0 | 0.00 | 0.00 | 0.00 | 55 | 1013.1 |
| 20260504015123 | 54 | 251 | 0.0 | 0.0 | 0.00 | 0.00 | 0.00 | 52 | 1013.1 |
| 20260504014616 | 53 | 251 | 0.0 | 0.0 | 0.00 | 0.00 | 0.00 | 53 | 1013.0 |
| 20260504014337 | 53 | 251 | 0.0 | 0.0 | 0.00 | 0.00 | 0.00 | 55 | 1013.0 |
| 20260504013604 | 52 | 251 | 0.0 | 0.0 | 0.00 | 0.00 | 0.00 | 56 | 1012.9 |
| 20260504013059 | 52 | 251 | 0.0 | 0.0 | 0.00 | 0.00 | 0.00 | 57 | 1012.9 |
| 20260504012544 | 52 | 251 | 0.0 | 0.0 | 0.00 | 0.00 | 0.00 | 57 | 1012.9 |
| 20260504012040 | 52 | 251 | 0.0 | 0.0 | 0.00 | 0.00 | 0.00 | 57 | 1012.9 |
| 20260504011533 | 53 | 251 | 0.0 | 0.0 | 0.00 | 0.00 | 0.00 | 56 | 1012.8 |
| 20260504011026 | 53 | 251 | 0.0 | 0.0 | 0.00 | 0.00 | 0.00 | 57 | 1012.7 |
| 20260504010752 | 54 | 251 | 0.0 | 0.0 | 0.00 | 0.00 | 0.00 | 55 | 1012.7 |
| 20260504010014 | 54 | 251 | 0.0 | 0.0 | 0.00 | 0.00 | 0.00 | 53 | 1012.8 |
| 20260504005504 | 55 | 251 | 0.0 | 0.0 | 0.00 | 0.00 | 0.00 | 51 | 1012.8 |
| 20260504005004 | 55 | 251 | 0.0 | 0.0 | 0.00 | 0.00 | 0.00 | 50 | 1012.8 |
| 20260504004451 | 55 | 251 | 0.0 | 0.0 | 0.00 | 0.00 | 0.00 | 49 | 1012.7 |
| 20260504003953 | 56 | 251 | 0.0 | 0.0 | 0.00 | 0.00 | 0.00 | 48 | 1012.6 |
| 20260504003447 | 56 | 251 | 0.0 | 0.0 | 0.00 | 0.00 | 0.00 | 48 | 1012.6 |
| 20260504002940 | 56 | 251 | 0.0 | 0.0 | 0.00 | 0.00 | 0.00 | 48 | 1012.6 |
| 20260504002435 | 56 | 251 | 0.0 | 0.0 | 0.00 | 0.00 | 0.00 | 48 | 1012.5 |
| 20260504001922 | 56 | 251 | 0.0 | 0.0 | 0.00 | 0.00 | 0.00 | 48 | 1012.5 |
| 20260504001423 | 56 | 251 | 0.0 | 0.0 | 0.00 | 0.00 | 0.00 | 48 | 1012.4 |
| 20260504001148 | 57 | 251 | 0.0 | 0.0 | 0.00 | 0.00 | 0.00 | 47 | 1012.3 |
| 20260504000404 | 57 | 251 | 0.0 | 0.0 | 0.00 | 0.00 | 0.00 | 47 | 1012.3 |
| 20260504000132 | 58 | 251 | 0.0 | 4.0 | 0.00 | 0.00 | 0.00 | 45 | 1012.2 |
| 20260503235355 | 58 | 251 | 0.0 | 4.0 | 0.00 | 0.00 | 0.00 | 44 | 1012.1 |
| 20260503234842 | 58 | 252 | 0.0 | 1.0 | 0.00 | 0.00 | 0.00 | 44 | 1012.1 |
| 20260503234342 | 59 | 252 | 0.0 | 1.0 | 0.00 | 0.00 | 0.00 | 43 | 1012.1 |
| 20260503233837 | 59 | 252 | 0.0 | 7.0 | 0.00 | 0.00 | 0.00 | 43 | 1012.0 |
| 20260503233330 | 59 | 252 | 1.0 | 11.0 | 0.00 | 0.00 | 0.00 | 43 | 1012.0 |
| 20260503232825 | 60 | 244 | 2.0 | 11.0 | 0.00 | 0.00 | 0.00 | 41 | 1012.0 |
| 20260503232318 | 60 | 257 | 1.0 | 8.0 | 0.00 | 0.00 | 0.00 | 42 | 1012.0 |
| 20260503231813 | 60 | 243 | 0.0 | 8.0 | 0.00 | 0.00 | 0.00 | 42 | 1012.0 |
| 20260503231302 | 60 | 246 | 1.0 | 9.0 | 0.00 | 0.00 | 0.00 | 43 | 1011.9 |
| 20260503230801 | 60 | 248 | 2.0 | 9.0 | 0.00 | 0.00 | 0.00 | 42 | 1011.9 |
| 20260503230525 | 60 | 242 | 0.0 | 8.0 | 0.00 | 0.00 | 0.00 | 42 | 1011.9 |
| 20260503225749 | 60 | 253 | 0.0 | 2.0 | 0.00 | 0.00 | 0.00 | 43 | 1011.8 |
| 20260503225243 | 60 | 253 | 1.0 | 9.0 | 0.00 | 0.00 | 0.00 | 42 | 1011.8 |
| 20260503225003 | 60 | 254 | 1.0 | 9.0 | 0.00 | 0.00 | 0.00 | 41 | 1011.9 |
| 20260503224851 | 61 | 247 | 1.0 | 9.0 | 0.00 | 0.00 | 0.00 | 41 | 1011.9 |
| 20260503223724 | 61 | 261 | 1.0 | 9.0 | 0.00 | 0.00 | 0.00 | 41 | 1011.9 |
| 20260503223218 | 61 | 248 | 1.0 | 9.0 | 0.00 | 0.00 | 0.00 | 41 | 1011.8 |
| 20260503222713 | 61 | 248 | 1.0 | 9.0 | 0.00 | 0.00 | 0.00 | 42 | 1011.8 |
| 20260503222437 | 61 | 244 | 1.0 | 8.0 | 0.00 | 0.00 | 0.00 | 41 | 1011.8 |
| 20260503221701 | 61 | 250 | 1.0 | 7.0 | 0.00 | 0.00 | 0.00 | 41 | 1011.8 |
| 20260503221150 | 61 | 254 | 1.0 | 7.0 | 0.00 | 0.00 | 0.00 | 42 | 1011.9 |
| 20260503220649 | 62 | 256 | 0.0 | 6.0 | 0.00 | 0.00 | 0.00 | 40 | 1011.9 |
| 20260503220143 | 62 | 252 | 0.0 | 6.0 | 0.00 | 0.00 | 0.00 | 42 | 1012.0 |
| 20260503215908 | 61 | 246 | 1.0 | 7.0 | 0.00 | 0.00 | 0.00 | 43 | 1011.9 |
| 20260503215131 | 61 | 246 | 1.0 | 9.0 | 0.00 | 0.00 | 0.00 | 41 | 1011.9 |
| 20260503214620 | 61 | 265 | 1.0 | 10.0 | 0.00 | 0.00 | 0.00 | 40 | 1011.9 |
| 20260503214119 | 62 | 261 | 1.0 | 10.0 | 0.00 | 0.00 | 0.00 | 40 | 1011.8 |
| 20260503213613 | 62 | 247 | 1.0 | 10.0 | 0.00 | 0.00 | 0.00 | 42 | 1011.8 |
| 20260503213107 | 61 | 255 | 2.0 | 10.0 | 0.00 | 0.00 | 0.00 | 42 | 1011.8 |
| 20260503212601 | 61 | 254 | 2.0 | 10.0 | 0.00 | 0.00 | 0.00 | 42 | 1011.7 |
| 20260503212322 | 61 | 244 | 1.0 | 10.0 | 0.00 | 0.00 | 0.00 | 41 | 1011.8 |
| 20260503211820 | 61 | 251 | 1.0 | 10.0 | 0.00 | 0.00 | 0.00 | 42 | 1011.8 |
| 20260503211043 | 61 | 250 | 2.0 | 14.0 | 0.00 | 0.00 | 0.00 | 39 | 1011.8 |
| 20260503210537 | 62 | 250 | 2.0 | 14.0 | 0.00 | 0.00 | 0.00 | 41 | 1011.8 |
| 20260503210031 | 61 | 280 | 2.0 | 10.0 | 0.00 | 0.00 | 0.00 | 44 | 1011.8 |
| 20260503205525 | 61 | 255 | 1.0 | 7.0 | 0.00 | 0.00 | 0.00 | 42 | 1011.8 |
| 20260503205018 | 61 | 259 | 2.0 | 11.0 | 0.00 | 0.00 | 0.00 | 43 | 1011.7 |
| 20260503204508 | 61 | 259 | 3.0 | 11.0 | 0.00 | 0.00 | 0.00 | 42 | 1011.8 |
| 20260503204007 | 61 | 237 | 3.0 | 12.0 | 0.00 | 0.00 | 0.00 | 42 | 1011.8 |
| 20260503203501 | 61 | 271 | 2.0 | 12.0 | 0.00 | 0.00 | 0.00 | 42 | 1011.9 |
| 20260503202955 | 60 | 250 | 2.0 | 12.0 | 0.00 | 0.00 | 0.00 | 44 | 1011.8 |
| 20260503202449 | 60 | 249 | 2.0 | 12.0 | 0.00 | 0.00 | 0.00 | 42 | 1011.9 |
| 20260503201936 | 61 | 257 | 2.0 | 12.0 | 0.00 | 0.00 | 0.00 | 40 | 1011.9 |
| 20260503201437 | 60 | 254 | 1.0 | 11.0 | 0.00 | 0.00 | 0.00 | 44 | 1011.9 |
| 20260503200931 | 60 | 257 | 1.0 | 8.0 | 0.00 | 0.00 | 0.00 | 42 | 1011.9 |
| 20260503200425 | 60 | 262 | 2.0 | 11.0 | 0.00 | 0.00 | 0.00 | 42 | 1012.0 |
| 20260503200149 | 60 | 261 | 2.0 | 11.0 | 0.00 | 0.00 | 0.00 | 41 | 1012.2 |
| 20260503195413 | 59 | 240 | 2.0 | 9.0 | 0.00 | 0.00 | 0.00 | 44 | 1012.1 |
| 20260503194906 | 60 | 254 | 1.0 | 7.0 | 0.00 | 0.00 | 0.00 | 45 | 1012.2 |
| 20260503194354 | 59 | 248 | 1.0 | 7.0 | 0.00 | 0.00 | 0.00 | 42 | 1012.3 |
| 20260503193855 | 60 | 254 | 0.0 | 7.0 | 0.00 | 0.00 | 0.00 | 44 | 1012.4 |
| 20260503193349 | 60 | 252 | 0.0 | 7.0 | 0.00 | 0.00 | 0.00 | 46 | 1012.4 |
| 20260503192842 | 59 | 255 | 1.0 | 7.0 | 0.00 | 0.00 | 0.00 | 45 | 1012.5 |
| 20260503192337 | 58 | 257 | 1.0 | 10.0 | 0.00 | 0.00 | 0.00 | 45 | 1012.7 |
| 20260503191827 | 58 | 234 | 2.0 | 11.0 | 0.00 | 0.00 | 0.00 | 46 | 1012.6 |
| 20260503191324 | 59 | 246 | 1.0 | 11.0 | 0.00 | 0.00 | 0.00 | 44 | 1012.6 |
| 20260503190820 | 59 | 252 | 1.0 | 8.0 | 0.00 | 0.00 | 0.00 | 43 | 1012.7 |
| 20260503190312 | 59 | 252 | 1.0 | 8.0 | 0.00 | 0.00 | 0.00 | 42 | 1012.8 |
| 20260503185808 | 59 | 257 | 1.0 | 10.0 | 0.00 | 0.00 | 0.00 | 44 | 1012.8 |
| 20260503185532 | 59 | 258 | 1.0 | 11.0 | 0.00 | 0.00 | 0.00 | 41 | 1012.9 |
| 20260503184756 | 58 | 229 | 1.0 | 11.0 | 0.00 | 0.00 | 0.00 | 46 | 1013.0 |
| 20260503184241 | 59 | 259 | 1.0 | 10.0 | 0.00 | 0.00 | 0.00 | 42 | 1013.1 |
| 20260503183742 | 59 | 241 | 2.0 | 10.0 | 0.00 | 0.00 | 0.00 | 42 | 1013.0 |
| 20260503183236 | 58 | 336 | 2.0 | 10.0 | 0.00 | 0.00 | 0.00 | 44 | 1013.1 |
| 20260503182730 | 58 | 277 | 1.0 | 10.0 | 0.00 | 0.00 | 0.00 | 43 | 1013.2 |
| 20260503182224 | 58 | 259 | 1.0 | 9.0 | 0.00 | 0.00 | 0.00 | 44 | 1013.2 |
| 20260503181715 | 58 | 256 | 1.0 | 9.0 | 0.00 | 0.00 | 0.00 | 43 | 1013.2 |
| 20260503181218 | 58 | 269 | 2.0 | 13.0 | 0.00 | 0.00 | 0.00 | 45 | 1013.3 |
| 20260503181213 | 58 | 327 | 2.0 | 13.0 | 0.00 | 0.00 | 0.00 | 45 | 1013.1 |
| 20260503180201 | 58 | 251 | 1.0 | 9.0 | 0.00 | 0.00 | 0.00 | 48 | 1013.2 |
| 20260503175654 | 58 | 250 | 1.0 | 7.0 | 0.00 | 0.00 | 0.00 | 48 | 1013.3 |
| 20260503175148 | 57 | 240 | 1.0 | 11.0 | 0.00 | 0.00 | 0.00 | 47 | 1013.3 |
| 20260503174643 | 56 | 261 | 3.0 | 11.0 | 0.00 | 0.00 | 0.00 | 49 | 1013.4 |
| 20260503174132 | 56 | 255 | 4.0 | 11.0 | 0.00 | 0.00 | 0.00 | 44 | 1013.5 |